Retour au catalogue

STARLINK-32031

ActifCommunicationsVLEO
NORAD 60142·PAYLOAD·🇺🇸 United States

Lancé Jun 27, 2024 depuis Cape Canaveral Space Force Station

Loading…

Prochains Passages (prochaines 24 heures)

TLE

FraisSource: CelesTrak SupGP

Époque: Sep 14, 2026, 14:59 UTC

1 60142C 24120H   26257.62479167  .00070973  00000+0  20974-2 0  2572
2 60142  53.1564 158.8384 0001266  87.2394 228.8836 15.34348354    12

Suivez STARLINK-32031 en temps réel avec AllMySat

Download on the App Store